EHI
0 0 0 0 0 0 0 0 0 0 0 0 0 0 0 0 0 0 0 0 0 0 0 0 0 0 0 0 1 0 1 2 3 2 1 0 0 0 0 0 1 0 0
0 0 0 0 0 0 0 0 0 0 0 0 0 0 0 0 0 0 0 0 0 0 0 0 0 0 0 0 1 0 1 2 3 1 0 0 0 0 0 0 1 0 0
0 0 0 0 0 0 0 0 0 0 0 0 0 0 0 0 0 0 0 0 0 0 0 0 0 0 0 0 0 0 1 2 2 1 0 0 0 0 0 0 0 0 0
0 0 0 0 0 0 0 0 0 0 0 0 0 0 0 0 0 0 0 0 0 0 0 0 0 0 0 0 0 0 1 1 1 1 0 0 0 0 0 0 0 0 0
0 0 0 0 0 0 0 0 0 0 1 1 0 0 0 0 0 1 1 0 0 0 0 0 0 0 0 0 0 0 0 0 0 0 0 0 0 0 0 0 0 0 0
0 0 0 0 0 0 0 0 0 0 1 1 0 0 0 0 0 1 1 0 0 0 0 0 0 0 0 0 0 0 0 0 0 0 0 0 0 0 0 0 0 0 0
0 0 0 0 0 0 0 0 0 0 1 1 0 0 0 0 0 0 0 0 0 0 0 0 0 0 0 0 0 0 0 0 0 0 0 0 0 0 0 0 0 0 0
0 0 0 0 0 0 0 0 0 0 0 0 0 0 0 0 0 0 0 0 0 0 0 0 0 0 0 0 0 0 1 1 1 0 0 0 0 0 0 0 0 0 0
0 0 0 0 0 0 0 0 0 0 0 0 0 0 0 0 0 0 0 0 0 0 0 0 0 0 0 0 0 0 1 2 1 0 0 0 0 0 0 0 0 0 0
0 0 0 0 0 0 0 0 0 0 0 0 0 1 1 1 0 0 0 0 0 0 0 0 0 0 0 0 0 0 1 1 1 0 0 0 0 0 0 0 0 0 0
0 0 0 0 0 0 0 0 0 0 0 0 0 1 1 1 0 0 0 0 0 0 0 0 0 1 1 0 0 0 0 0 0 0 0 0 0 0 0 0 0 0 0
0 0 0 0 0 0 0 0 0 0 0 0 0 1 1 0 0 0 0 0 0 0 0 0 0 1 1 0 0 0 0 0 0 0 0 0 0 0 0 0 0 0 0
0 0 0 0 0 0 0 0 0 0 0 0 0 0 0 0 0 0 0 0 0 0 0 0 0 1 1 0 0 0 0 0 0 0 1 1 0 0 0 0 0 0 0
0 0 0 0 0 1 1 1 0 1 2 2 1 0 0 0 0 0 0 0 0 0 0 0 0 0 0 0 0 0 0 0 0 0 1 2 1 0 0 0 0 0 0
0 0 1 1 3 5 5 4 2 3 4 4 2 1 0 0 0 0 0 0 0 0 0 0 0 0 0 0 0 0 0 0 0 0 1 2 2 1 1 1 1 0 0
1 1 2 4 6 8 8 6 4 4 4 4 3 1 0 0 0 0 0 0 0 0 0 0 0 0 0 0 0 0 0 0 0 0 0 1 1 1 1 2 2 1 0
2 1 2 4 7 9 9 6 4 4 4 3 3 1 0 0 0 0 0 0 0 0 0 0 0 0 0 0 0 0 0 0 0 0 0 0 0 0 1 2 2 1 0
2 1 1 3 6 9 9 7 5 4 4 3 3 2 1 0 0 0 0 0 0 0 0 0 0 0 0 0 0 0 0 0 0 0 0 0 1 1 1 2 2 1 0
1 1 2 4 7 9 10 8 6 5 4 4 3 3 1 0 0 0 0 0 0 0 0 0 0 0 0 0 0 0 0 0 0 0 0 0 1 2 2 2 2 1 0
4 5 6 7 9 10 10 9 6 5 4 3 3 3 2 0 0 0 0 0 0 0 0 1 1 1 0 0 0 0 0 0 0 0 0 0 1 1 1 1 1 1 1
12 13 11 10 11 12 10 9 7 5 4 3 3 2 1 0 0 0 0 0 0 1 1 1 2 2 1 0 1 1 1 1 1 0 0 0 0 0 0 0 0 1 2
19 18 15 14 15 14 11 9 8 5 4 3 1 1 0 0 0 0 0 0 1 2 2 3 3 2 1 1 2 2 3 2 1 0 0 1 1 1 1 0 0 1 1
22 20 18 18 19 17 13 10 7 5 4 2 1 1 1 0 1 1 1 1 1 2 3 3 2 2 3 4 4 4 4 4 2 1 1 2 2 3 2 1 0 0 0
23 22 21 23 24 22 17 12 9 6 4 3 3 3 3 1 1 2 3 3 3 3 4 4 2 3 4 5 5 5 5 4 3 2 1 2 2 2 2 1 0 0 0
22 22 24 27 29 29 24 17 13 9 7 5 4 4 4 3 2 2 3 4 5 5 6 6 5 5 6 5 5 6 7 6 5 4 2 1 2 1 1 1 1 0 0
19 20 23 29 34 34 29 21 16 14 10 6 4 4 5 3 2 1 2 4 5 6 8 8 7 6 6 4 4 6 7 9 8 5 3 1 1 1 1 2 2 1 0
Wind_Speed
5 8 9 8 9 10 10 10 11 11 12 12 13 13 14 14 15 15 15 16 17 17 17 17 17 17 17 17 17 17 17 16 17 17 17 17 16 16 15 15 13 14 16
7 9 9 9 10 10 10 10 11 12 12 13 13 13 14 14 14 14 15 15 16 16 16 17 17 17 17 16 16 16 16 16 16 16 16 17 16 15 14 12 11 13 15
7 8 9 9 9 9 10 10 12 12 13 13 13 14 14 14 14 15 15 15 16 16 16 16 16 16 16 16 16 16 16 15 14 13 13 13 15 14 14 14 15 15 14
7 8 10 9 9 9 9 10 11 12 13 13 13 14 14 14 14 15 15 16 16 16 16 16 15 15 15 15 15 15 15 14 12 10 9 11 13 14 14 14 14 14 13
8 8 11 8 9 9 9 10 11 12 12 13 13 14 14 14 14 15 15 15 15 15 15 15 14 15 14 14 14 13 13 12 8 7 10 10 11 13 13 14 13 13 13
8 8 12 7 8 9 10 10 11 11 12 13 13 13 14 14 14 14 15 15 14 14 14 14 14 13 13 13 13 12 11 9 8 9 9 10 11 12 13 13 13 12 12
8 8 11 8 8 8 9 10 10 10 11 12 12 13 13 13 14 14 14 13 13 13 13 13 13 12 12 12 12 11 8 4 6 9 8 9 11 11 12 12 11 11 11
7 8 10 9 7 8 9 9 10 10 10 11 11 12 12 12 12 12 12 12 12 12 12 12 12 11 11 11 11 10 6 3 7 8 8 10 11 10 11 11 10 10 10
6 7 7 9 9 8 8 8 8 9 10 10 10 10 11 11 11 11 10 10 11 11 11 10 10 10 10 9 9 8 5 1 4 7 8 8 11 9 10 10 9 9 9
6 6 6 6 6 7 9 8 7 8 8 8 9 9 9 10 10 9 10 10 10 10 9 9 9 9 9 8 8 7 5 5 5 7 6 9 10 9 9 9 8 8 8
5 5 5 6 5 5 6 8 7 7 6 6 8 6 4 6 8 7 10 9 8 8 8 8 8 7 7 8 7 6 6 2 5 4 5 11 9 8 8 8 8 8 7
5 5 5 4 4 3 4 5 3 5 5 3 4 4 4 4 4 6 9 7 7 7 7 6 6 7 6 6 8 8 3 4 4 5 7 10 8 8 8 7 7 7 7
6 5 5 5 3 2 3 2 2 2 3 4 4 3 3 2 3 3 4 6 5 5 4 6 6 3 2 3 2 3 3 2 2 4 8 10 8 7 7 7 7 7 7
5 4 4 5 3 2 1 2 1 2 2 2 4 1 2 2 1 3 1 2 2 2 2 1 1 2 2 2 2 2 3 2 2 2 7 10 8 8 8 8 7 7 7
5 5 4 3 3 2 1 1 1 1 1 3 2 2 1 2 2 2 1 1 1 2 2 1 1 2 1 2 2 3 2 2 2 2 5 10 9 8 8 8 8 8 8
5 5 5 5 4 3 2 2 1 1 1 0 1 2 1 1 1 1 2 1 1 1 1 1 1 2 2 1 2 2 2 2 2 2 3 8 10 9 9 9 9 9 9
6 5 5 5 5 4 3 3 2 2 2 1 1 1 1 2 1 1 1 2 1 1 2 2 1 2 2 2 2 2 2 2 2 3 3 3 6 11 10 9 9 9 9
6 6 5 4 5 4 3 3 2 1 1 1 1 1 2 1 1 2 1 1 1 1 2 2 2 2 1 1 2 2 2 2 3 3 3 3 3 4 9 10 8 8 9
6 6 6 5 5 4 4 3 3 1 1 2 1 1 2 2 3 3 1 0 2 2 2 2 1 1 2 2 2 2 2 2 2 3 2 3 2 3 3 7 8 7 7
6 6 6 6 5 5 4 3 2 2 2 2 2 1 2 3 3 3 2 2 3 2 2 2 1 1 2 2 2 0 1 1 1 1 2 1 1 2 2 2 4 5 6
7 6 6 6 5 4 3 3 3 3 2 2 2 2 2 3 2 3 2 2 3 2 2 2 2 2 2 1 2 2 2 2 2 1 1 1 1 0 0 0 1 1 3
8 7 7 7 6 6 4 2 2 2 2 1 1 1 2 2 3 3 2 2 2 2 2 3 2 2 2 2 2 2 2 3 3 1 2 2 2 1 1 1 1 1 1
9 9 7 7 6 6 5 4 3 3 3 2 2 2 1 2 2 2 2 2 2 3 2 2 3 4 3 3 2 3 2 1 1 2 2 2 2 2 2 2 2 2 2
10 8 8 7 6 6 5 4 4 3 2 1 1 1 1 1 2 2 2 2 3 2 2 3 2 3 4 3 2 3 3 2 2 1 2 3 2 2 2 2 2 3 3
9 8 8 7 7 6 6 5 5 4 3 2 1 1 1 1 1 1 1 1 2 2 2 3 2 3 3 3 3 2 2 2 3 2 2 2 2 2 2 2 2 2 3
9 9 8 8 7 7 6 6 5 4 3 2 2 1 2 1 1 0 1 1 1 2 1 2 2 2 2 2 3 3 3 2 2 2 2 2 2 2 3 3 3 3 3
Wind_Direction
81 77 71 60 60 60 63 66 69 71 77 77 78 82 85 88 89 90 92 95 98 100 100 101 101 101 103 106 107 108 109 110 110 110 110 111 113 115 116 121 126 112 114
92 87 83 64 63 62 64 67 73 79 78 77 79 81 86 87 90 94 95 95 97 98 99 100 101 100 101 105 107 108 109 110 110 113 116 113 111 113 114 110 97 108 119
93 92 93 70 67 65 66 71 81 81 80 79 81 82 82 84 87 95 96 95 96 97 98 99 101 102 104 106 107 108 109 110 113 122 133 120 113 111 110 107 107 115 116
92 89 79 76 72 69 71 76 81 81 81 80 81 81 79 81 84 90 93 93 93 94 96 98 101 104 105 106 108 108 109 112 119 143 128 113 115 112 113 114 116 117 116
92 91 87 79 78 74 72 75 80 82 83 81 82 82 81 82 87 89 91 90 91 94 97 99 100 103 104 105 107 109 112 119 137 136 104 108 108 116 119 119 119 120 120
108 98 93 81 79 77 76 75 78 81 83 83 83 83 84 85 88 92 90 90 91 93 97 99 100 101 103 105 109 112 118 137 162 108 112 116 113 120 122 123 122 122 122
104 100 99 88 84 83 82 80 80 82 83 83 83 83 83 86 89 92 91 92 92 94 98 100 101 100 101 105 108 112 119 151 117 108 116 110 108 122 124 124 126 126 126
106 103 108 109 90 86 84 82 83 83 85 86 86 86 86 87 89 94 96 94 92 93 95 99 99 99 99 103 107 112 123 179 119 112 110 106 112 126 127 129 131 132 132
104 104 109 119 120 113 93 83 85 84 83 85 89 90 91 91 92 94 97 97 95 93 94 99 101 100 102 105 109 113 115 255 125 115 116 112 124 132 134 136 139 139 138
114 112 114 107 106 120 117 102 92 90 89 90 92 96 105 113 111 112 113 98 98 97 99 102 105 107 109 110 113 120 151 218 120 119 116 117 135 141 142 144 145 146 147
119 117 115 113 108 107 107 117 127 121 110 128 118 118 149 122 115 125 90 100 104 106 107 108 113 120 131 131 129 147 191 154 112 104 104 116 143 149 150 152 155 156 160
135 133 118 107 102 102 99 115 119 121 115 104 92 109 105 90 87 96 113 114 113 117 126 125 136 164 192 146 145 184 167 125 127 123 111 131 151 159 161 162 162 165 171
145 140 132 123 123 105 100 106 94 97 112 119 101 105 98 117 122 125 132 140 141 154 143 142 176 166 130 108 147 147 114 124 125 121 122 144 161 169 171 173 176 177 178
150 144 134 128 126 95 54 98 137 127 123 108 115 130 122 118 105 102 122 122 143 136 116 139 130 116 118 138 159 148 150 154 123 110 126 153 172 182 183 184 188 191 189
165 166 150 152 146 157 156 276 110 94 105 110 114 120 146 148 131 114 97 113 136 123 152 174 144 131 167 170 178 173 177 150 136 156 137 162 180 190 193 195 198 201 201
181 175 162 180 174 185 188 206 228 181 144 120 123 113 168 144 129 150 160 164 138 144 98 200 165 179 208 199 196 176 211 192 166 205 181 165 184 194 201 205 209 211 210
184 182 180 186 184 198 210 217 209 216 182 160 132 150 205 209 164 213 186 189 167 162 175 214 210 213 211 201 201 204 208 218 201 208 222 202 186 193 202 208 216 217 216
188 183 193 198 184 194 210 227 235 243 231 209 199 183 195 223 210 236 232 207 212 228 214 203 224 213 223 236 217 221 202 192 204 211 221 221 222 196 191 198 209 216 222
192 192 195 206 205 202 200 211 220 220 248 248 234 218 194 213 221 236 240 250 245 238 245 254 186 239 229 254 237 201 213 208 200 209 218 229 222 227 208 174 193 208 218
188 195 202 204 209 214 208 207 216 220 217 227 238 228 233 221 223 249 219 215 249 240 236 236 243 240 254 255 270 194 206 206 212 202 221 211 213 230 246 198 184 192 199
188 192 203 209 198 207 214 215 208 205 211 209 219 211 226 240 230 244 266 205 245 247 255 245 239 219 227 230 240 212 186 188 175 188 196 199 177 192 212 154 220 219 172
192 193 201 204 203 208 206 220 228 230 224 208 240 191 233 234 238 221 240 251 246 257 244 248 251 256 236 217 250 248 217 185 173 157 165 165 141 125 122 132 120 112 291
195 195 200 203 202 209 208 206 205 199 215 205 197 190 223 239 241 260 252 269 276 264 255 259 256 251 255 234 235 258 262 233 140 140 119 117 116 114 111 101 97 92 92
196 192 196 197 198 198 202 215 221 229 230 217 221 174 199 225 251 246 252 261 275 278 271 264 250 263 258 258 230 241 266 290 240 175 150 129 116 97 83 81 89 90 82
193 189 187 189 195 196 201 207 218 231 228 201 195 179 238 197 251 278 275 277 269 274 288 291 286 269 256 262 261 249 240 228 234 232 197 153 114 79 80 80 76 83 85
188 189 186 184 192 193 199 206 215 224 229 226 219 213 217 187 178 274 278 307 292 300 291 281 279 263 276 271 265 258 250 239 221 220 208 180 136 94 77 71 70 74 81